Flag for Germany Weather past 2 weeks in Wiehl, North Rhine-Westphalia, Germany

Now
48 °F

Passing clouds.


Feels Like: 42 °F
Forecast: 40 / 49 °F
Wind: 18 mph from West

Location: Koeln / Bonn

Current Time: Oct 21, 2014 at 11:29:20 PM

Latest Report: Oct 21, 2014 at 10:50 PM


Visibility: N/A

Pressure: 29.77 "Hg

Humidity: 76%

Dew point: 41 °F

Location of WiehlLocation

Historic Weather in Wiehl — Graph

°F

Wiehl temperature yesterday

Maximum temperature yesterday: 63 °F (at 3:50 PM)
Minimum temperature yesterday: 52 °F (at 11:50 PM)
Average temperature yesterday: 58 °F

Past Weeks' High & Low Weather Summary

 TemperatureHumidityPressure
High75 °F (Oct 19, 1:50 PM)100% (Oct 11, 3:50 AM)30.12 "Hg (Oct 11, 3:50 AM)
Low45 °F (Oct 12, 7:50 AM)46% (Oct 14, 2:50 PM)29.53 "Hg (Oct 7, 8:50 AM)
Average58 °F82%29.85 "Hg
* Reported Oct 6 10:20 PM — Oct 21 10:20 PM, Wiehl, Weather by CustomWeather, © 2014

Note: Actual official high and low records may vary slightly from our data, if they occured in-between our weather recording intervals... More about our weather records

Advertising

Wiehl weather history for previous 24 hours

 ConditionsComfort  
Time TempWeatherWind HumidityBarometerVisibility
10:20 PM
Oct 21
48 °FPassing clouds.16 mph76%29.74 "HgN/A
9:50 PM48 °FPassing clouds.12 mph76%29.74 "HgN/A
9:20 PM48 °FPassing clouds.20 mph76%29.71 "HgN/A
8:50 PM48 °FPassing clouds.13 mph76%29.71 "HgN/A
8:20 PM48 °FPartly cloudy.17 mph76%29.71 "HgN/A
7:50 PM48 °FPartly cloudy.18 mph82%29.68 "HgN/A
7:20 PM48 °FPartly sunny.20 mph82%29.65 "HgN/A
6:50 PM50 °FSprinkles. Partly sunny.18 mph82%29.62 "HgN/A
6:20 PM50 °FSprinkles. Broken clouds.15 mph82%29.59 "HgN/A
5:50 PM52 °FLight rain. Broken clouds.21 mph82%29.59 "HgN/A
5:20 PM54 °FRain showers. Broken clouds.21 mph88%29.56 "HgN/A
4:50 PM54 °FRain showers. Broken clouds.21 mph88%29.53 "Hg5 mi
4:20 PM55 °FLight rain. Broken clouds.14 mph88%29.53 "Hg4 mi
3:50 PM55 °FLight rain. Partly sunny.15 mph82%29.56 "HgN/A
3:20 PM57 °FPartly sunny.18 mph72%29.59 "HgN/A
2:50 PM55 °FBroken clouds.15 mph77%29.62 "HgN/A
2:20 PM54 °FPartly sunny.10 mph88%29.62 "HgN/A
1:50 PM54 °FDrizzle. Broken clouds.12 mph88%29.65 "HgN/A
1:20 PM54 °FLight rain. Partly sunny.13 mph82%29.68 "HgN/A
12:50 PM55 °FLight rain. Partly sunny.16 mph72%29.68 "HgN/A
12:20 PM55 °FPartly sunny.15 mph72%29.71 "HgN/A
11:50 AM55 °FPartly sunny.13 mph72%29.74 "HgN/A
11:20 AM55 °FLight rain. Broken clouds.14 mph77%29.74 "HgN/A
10:50 AM54 °FPartly sunny.13 mph82%29.77 "HgN/A
10:20 AM54 °FPartly sunny.9 mph82%29.80 "HgN/A
9:50 AM54 °FPartly sunny.10 mph82%29.80 "HgN/A
9:20 AM54 °FPartly sunny.9 mph82%29.80 "HgN/A
8:50 AM52 °FClear.10 mph88%29.83 "Hg10 mi
8:20 AM52 °FClear.10 mph88%29.83 "Hg10 mi
7:50 AM52 °FClear.10 mph88%29.83 "Hg10 mi
7:20 AM50 °FPassing clouds.9 mph94%29.86 "HgN/A
6:50 AM50 °FClear.9 mph94%29.86 "Hg10 mi
6:20 AM50 °FPassing clouds.9 mph94%29.86 "HgN/A
5:50 AM50 °FPassing clouds.8 mph88%29.86 "HgN/A
5:20 AM52 °FPartly cloudy.8 mph88%29.89 "HgN/A
4:50 AM52 °FPartly cloudy.8 mph88%29.89 "HgN/A
4:20 AM52 °FPassing clouds.8 mph82%29.92 "HgN/A
3:50 AM50 °FPassing clouds.6 mph94%29.92 "HgN/A
3:20 AM50 °FPassing clouds.6 mph88%29.92 "HgN/A
2:50 AM48 °FPassing clouds.5 mph94%29.95 "HgN/A
2:20 AM48 °FPassing clouds.5 mph94%29.95 "HgN/A
1:50 AM48 °FClear.7 mph87%29.95 "Hg10 mi
1:20 AM50 °FClear.7 mph88%29.95 "Hg10 mi
12:50 AM50 °FClear.6 mph88%29.95 "Hg10 mi
12:20 AM52 °FClear.6 mph82%29.95 "Hg10 mi
11:50 PM
Oct 20
52 °FPassing clouds.7 mph88%29.98 "HgN/A
11:20 PM54 °FPartly cloudy.6 mph82%29.98 "HgN/A
Weather by CustomWeather, © 2014

See weather overviewHow to use our weather pages